• In Hungary
  • List of Countries
  • For 7 days
  • Water Temperature
  • Satellite Maps
  • Weather Map
  • News
  • Weather Widgets
  • user-avatar
    Login

    Hourly Weather Albany

    Today, 15 December, Friday

    Time Temperature Precipitation Wind Pressure Humidity
    00:00 -10°C° 0 mm 2 mps 761 mmHg 84%
    01:00 -10°C° 0 mm 2 mps 761 mmHg 86%
    02:00 -12°C° 0 mm 2 mps 761 mmHg 87%
    03:00 -10°C° 0 mm 1 mps 761 mmHg 88%
    04:00 -10°C° 0 mm 1 mps 761 mmHg 89%
    05:00 -10°C° 0 mm 1 mps 761 mmHg 89%
    06:00 -10°C° 0 mm 1 mps 761 mmHg 89%
    07:00 -10°C° 0 mm 1 mps 761 mmHg 89%
    08:00 -9°C° 0 mm 1 mps 761 mmHg 84%
    09:00 -7°C° 0 mm 1 mps 761 mmHg 79%
    10:00 -6°C° 0 mm 1 mps 761 mmHg 73%
    11:00 -4°C° 0 mm 1 mps 760 mmHg 71%
    12:00 -5°C° 0 mm 2 mps 759 mmHg 68%
    13:00 -5°C° 0 mm 2 mps 759 mmHg 65%
    14:00 -5°C° 0 mm 2 mps 758 mmHg 69%
    15:00 -5°C° 0 mm 2 mps 757 mmHg 74%
    16:00 -5°C° 0 mm 2 mps 757 mmHg 78%
    17:00 -4°C° 0.1 mm 1 mps 757 mmHg 82%
    18:00 -4°C° 0.1 mm 1 mps 756 mmHg 87%
    19:00 -4°C° 0.1 mm 1 mps 756 mmHg 91%
    20:00 -6°C° 0 mm 1 mps 756 mmHg 92%
    21:00 -6°C° 0 mm 1 mps 755 mmHg 93%
    22:00 -6°C° 0 mm 1 mps 755 mmHg 94%
    23:00 -6°C° 0 mm 1 mps 755 mmHg 93%

    Tomorrow, 16 December, Saturday

    Time Temperature Precipitation Wind Pressure Humidity
    00:00 -7°C° 0 mm 2 mps 755 mmHg 93%
    01:00 -7°C° 0 mm 2 mps 754 mmHg 92%
    02:00 -7°C° 0 mm 2 mps 754 mmHg 91%
    03:00 -7°C° 0 mm 2 mps 755 mmHg 90%
    04:00 -7°C° 0 mm 2 mps 755 mmHg 89%
    05:00 -8°C° 0 mm 3 mps 755 mmHg 86%
    06:00 -8°C° 0 mm 3 mps 755 mmHg 84%
    07:00 -8°C° 0 mm 3 mps 756 mmHg 81%
    08:00 -8°C° 0 mm 4 mps 756 mmHg 77%
    09:00 -7°C° 0 mm 4 mps 756 mmHg 73%
    10:00 -5°C° 0 mm 4 mps 757 mmHg 68%
    11:00 -5°C° 0.1 mm 5 mps 757 mmHg 68%
    12:00 -5°C° 0.1 mm 5 mps 757 mmHg 69%
    13:00 -5°C° 0.1 mm 5 mps 758 mmHg 69%
    14:00 -5°C° 0.1 mm 5 mps 758 mmHg 70%
    15:00 -4°C° 0.1 mm 4 mps 759 mmHg 71%
    16:00 -5°C° 0.1 mm 4 mps 760 mmHg 71%
    17:00 -7°C° 0 mm 4 mps 761 mmHg 72%
    18:00 -7°C° 0 mm 3 mps 763 mmHg 73%
    19:00 -9°C° 0 mm 3 mps 764 mmHg 74%
    20:00 -8°C° 0 mm 2 mps 764 mmHg 76%
    21:00 -9°C° 0 mm 2 mps 765 mmHg 79%
    22:00 -8°C° 0 mm 1 mps 766 mmHg 81%
    23:00 -9°C° 0 mm 1 mps 766 mmHg 82%

    Day after tomorrow, 17 December, Sunday

    Time Temperature Precipitation Wind Pressure Humidity
    00:00 -9°C° 0 mm 1 mps 766 mmHg 83%
    01:00 -9°C° 0 mm 1 mps 766 mmHg 84%
    02:00 -9°C° 0 mm 1 mps 767 mmHg 85%
    03:00 -9°C° 0 mm 1 mps 767 mmHg 85%
    04:00 -9°C° 0 mm 1 mps 767 mmHg 86%
    05:00 -9°C° 0 mm 1 mps 767 mmHg 86%
    06:00 -9°C° 0 mm 1 mps 767 mmHg 87%
    07:00 -9°C° 0 mm 1 mps 768 mmHg 87%
    08:00 -7°C° 0 mm 1 mps 767 mmHg 81%
    09:00 -6°C° 0 mm 1 mps 767 mmHg 74%
    10:00 -3°C° 0 mm 1 mps 767 mmHg 68%
    11:00 -2°C° 0 mm 1 mps 767 mmHg 66%
    12:00 -1°C° 0 mm 1 mps 766 mmHg 64%
    13:00 0°C° 0 mm 1 mps 765 mmHg 62%
    14:00 0°C° 0 mm 1 mps 765 mmHg 67%
    15:00 -1°C° 0 mm 1 mps 765 mmHg 73%
    16:00 -2°C° 0 mm 1 mps 765 mmHg 78%
    17:00 -2°C° 0 mm 1 mps 765 mmHg 80%
    18:00 -2°C° 0 mm 1 mps 765 mmHg 82%
    19:00 -2°C° 0 mm 1 mps 765 mmHg 84%
    20:00 -2°C° 0 mm 1 mps 765 mmHg 86%
    21:00 -2°C° 0 mm 1 mps 764 mmHg 87%
    22:00 -1°C° 0 mm 1 mps 764 mmHg 88%
    23:00 -1°C° 0.1 mm 1 mps 764 mmHg 90%

    18 December, Monday

    Time Temperature Precipitation Wind Pressure Humidity
    00:00 -1°C° 0.1 mm 1 mps 763 mmHg 92%
    01:00 -2°C° 0.1 mm 0 mps 763 mmHg 93%
    02:00 -1°C° 0.1 mm 0 mps 763 mmHg 94%
    03:00 -1°C° 0.1 mm 0 mps 763 mmHg 94%
    04:00 -1°C° 0.1 mm 0 mps 763 mmHg 94%
    05:00 -1°C° 0 mm 0 mps 763 mmHg 95%
    06:00 -1°C° 0 mm 0 mps 763 mmHg 95%
    07:00 -1°C° 0 mm 0 mps 763 mmHg 95%
    08:00 0°C° 0 mm 0 mps 763 mmHg 92%
    09:00 +1°C° 0 mm 0 mps 763 mmHg 90%
    10:00 +3°C° 0 mm 0 mps 763 mmHg 87%
    11:00 +4°C° 0 mm 1 mps 762 mmHg 88%
    12:00 +4°C° 0 mm 1 mps 762 mmHg 88%
    13:00 +5°C° 0 mm 1 mps 762 mmHg 89%
    14:00 +4°C° 0 mm 1 mps 762 mmHg 90%
    15:00 +4°C° 0 mm 1 mps 762 mmHg 92%
    16:00 +4°C° 0 mm 1 mps 762 mmHg 93%
    17:00 +3°C° 0 mm 1 mps 762 mmHg 94%
    18:00 +3°C° 0 mm 1 mps 762 mmHg 94%
    19:00 +2°C° 0 mm 1 mps 762 mmHg 94%
    20:00 +2°C° 0 mm 1 mps 762 mmHg 95%
    21:00 +2°C° 0 mm 1 mps 762 mmHg 95%
    22:00 +2°C° 0 mm 1 mps 762 mmHg 95%
    23:00 +2°C° 0 mm 1 mps 761 mmHg 95%

    19 December, Tuesday

    Time Temperature Precipitation Wind Pressure Humidity
    00:00 +2°C° 0 mm 1 mps 761 mmHg 95%
    01:00 +2°C° 0 mm 1 mps 760 mmHg 95%
    02:00 +2°C° 0 mm 1 mps 760 mmHg 95%
    03:00 +2°C° 0 mm 1 mps 759 mmHg 94%
    04:00 +1°C° 0 mm 2 mps 759 mmHg 94%
    05:00 +2°C° 0 mm 2 mps 758 mmHg 94%
    06:00 +2°C° 0 mm 2 mps 758 mmHg 94%
    07:00 +2°C° 0 mm 2 mps 757 mmHg 94%
    08:00 +3°C° 0.4 mm 2 mps 756 mmHg 94%
    09:00 +3°C° 0.4 mm 3 mps 756 mmHg 94%
    10:00 +3°C° 0.4 mm 3 mps 755 mmHg 93%
    11:00 +4°C° 0.3 mm 4 mps 753 mmHg 93%
    12:00 +5°C° 0.3 mm 4 mps 752 mmHg 93%
    13:00 +6°C° 0.3 mm 4 mps 750 mmHg 93%
    14:00 +6°C° 0.4 mm 4 mps 749 mmHg 93%
    15:00 +6°C° 0.4 mm 4 mps 749 mmHg 93%
    16:00 +6°C° 0.4 mm 4 mps 748 mmHg 93%
    17:00 +6°C° 0.1 mm 4 mps 748 mmHg 91%
    18:00 +5°C° 0.1 mm 4 mps 749 mmHg 88%
    19:00 +3°C° 0.1 mm 5 mps 749 mmHg 86%
    20:00 +2°C° 0 mm 5 mps 749 mmHg 83%
    21:00 +1°C° 0 mm 5 mps 749 mmHg 79%
    22:00 -1°C° 0 mm 5 mps 750 mmHg 76%
    23:00 -1°C° 0 mm 5 mps 750 mmHg 75%

    20 December, Wednesday

    Time Temperature Precipitation Wind Pressure Humidity
    00:00 -2°C° 0 mm 5 mps 750 mmHg 75%
    01:00 -2°C° 0 mm 5 mps 750 mmHg 74%
    02:00 -2°C° 0 mm 5 mps 750 mmHg 73%
    03:00 -4°C° 0 mm 5 mps 750 mmHg 72%
    04:00 -4°C° 0 mm 5 mps 750 mmHg 71%
    05:00 -4°C° 0.1 mm 5 mps 751 mmHg 72%
    06:00 -4°C° 0.1 mm 5 mps 751 mmHg 73%
    07:00 -2°C° 0.1 mm 5 mps 751 mmHg 74%
    08:00 -3°C° 0.1 mm 6 mps 752 mmHg 72%
    09:00 -3°C° 0.1 mm 6 mps 752 mmHg 70%
    10:00 -2°C° 0.1 mm 7 mps 752 mmHg 68%
    11:00 -2°C° 0.2 mm 7 mps 752 mmHg 68%
    12:00 -3°C° 0.2 mm 7 mps 752 mmHg 69%
    13:00 -3°C° 0.2 mm 6 mps 752 mmHg 69%
    14:00 -3°C° 0.1 mm 6 mps 753 mmHg 70%
    15:00 -3°C° 0.1 mm 6 mps 753 mmHg 70%
    16:00 -4°C° 0.1 mm 5 mps 754 mmHg 71%
    17:00 -4°C° 0.1 mm 5 mps 755 mmHg 72%
    18:00 -4°C° 0.1 mm 5 mps 755 mmHg 72%
    19:00 -5°C° 0.1 mm 5 mps 756 mmHg 73%
    20:00 -5°C° 0 mm 5 mps 757 mmHg 72%
    21:00 -5°C° 0 mm 5 mps 757 mmHg 71%
    22:00 -5°C° 0 mm 5 mps 758 mmHg 71%
    23:00 -6°C° 0 mm 5 mps 758 mmHg 71%
    Show more